Tracking 31027 objects as of 19-Jul-2025
HD Live streaming from Space Station
objects crossing your sky now

FENGYUN 1C DEB

Track FENGYUN 1C DEB now!
10-day predictions


NORAD ID: 36689
Int'l Code: 1999-025DZK
Perigee: 761.4 km
Apogee: 1,227.9 km
Inclination: 98.5 °
Period: 104.9 minutes
Semi major axis: 7365 km
RCS: 0.0112 m2 (small)
Launch date: May 10, 1999
Source: People's Republic of China (PRC)
Launch site: Taiyaun Space Center, China (TSC)

Note: This is SATELLITE DEBRIS
Your satellite tracking list
ARIANE 5 R/B
Track 1 satellite(s)




NASA's NSSDC Master Catalog

Two Line Element Set (TLE):
1 36689U 99025DZK 25192.21009949  .00001389  00000-0  10708-2 0  9999
2 36689  98.4854 103.1787 0316736 352.0671   7.5537 13.73366637860117
Source of the keplerian elements: AFSPC